Regional Weather Roundup
Issued by NWS Lake Charles, LA

Home | Current Version | Previous Version | Text Only | Print | Product List | Glossary On
Versions: 1 2 3 4 5 6 7 8 9 10 11 12 13 14 15 16 17 18 19 20 21 22 23 24 25 26 27 28 29 30 31 32 33 34 35 36 37 38 39 40 41 42 43 44 45 46 47 48 49 50
000
ASUS44 KLCH 060710
RWRLCH
REGIONAL WEATHER ROUNDUP
NATIONAL WEATHER SERVICE LAKE CHARLES LA
100 AM CST SAT FEB 06 2016

Note: "fair" indicates few or no clouds below 12,000 feet with no
significant weather and/or obstructions to visibility.


ACROSS SOUTHEAST TEXAS

CITY           SKY/WX    TMP DP  RH WIND       PRES   REMARKS
BEAUMONT       MOCLDY    41  35  79 CALM      30.35F
BEAUMONT CITY  FAIR      38  34  84 NW3       30.35F
ORANGE         MOSUNNY   39  34  81 CALM      30.36S
JASPER         CLEAR     32  29  90 E5        30.37F WCI  27
$$

ACROSS CENTRAL LOUISIANA

CITY           SKY/WX    TMP DP  RH WIND       PRES   REMARKS
LEESVILLE      CLEAR     36  28  73 SE2       30.35F
FULLERTON      FAIR      33  28  81 CALM      30.34F
ALEXANDRIA INT CLEAR     39  33  79 W5        30.37S
ESLER FIELD    CLEAR     37  30  75 CALM      30.37F
DERIDDER         N/A     34  29  83 CALM      30.38F
OAKDALE          N/A     31  31  97 CALM      30.38F
OPELOUSAS      FAIR      33  31  90 CALM      30.38S
$$

ACROSS SOUTHWEST AND SOUTH CENTRAL LOUISIANA

CITY           SKY/WX    TMP DP  RH WIND       PRES   REMARKS
SULPHUR        SUNNY     46  36  68 MISG      30.35F
LAKE CHARLES   PTCLDY    38  33  82 SE9       30.35F
CHENNAULT INT  PTCLDY    37  32  81 SE7       30.36F
CAMERON PHI      N/A     50  34  53 SE12      30.36F
DEQUINCY       FAIR      34  32  94 CALM      30.36S
JENNINGS       FAIR      37  34  87 CALM      30.38S
LAFAYETTE      PTCLDY    39  28  64 CALM      30.38F
NEW IBERIA     PTCLDY    37  32  82 CALM      30.40S
ABBEVILLE      FAIR      35  32  89 CALM      30.39S
PATTERSON      CLEAR     37  32  81 CALM      30.39S
SALT POINT       N/A     41  37  86 CALM      30.38S
$$

SELECTED SITES ACROSS THE REGION

CITY           SKY/WX    TMP DP  RH WIND       PRES   REMARKS
HOUSTON BUSH   CLOUDY    47  35  63 SE3       30.34F
HOUSTON HOBBY  LGT RAIN  51  39  63 CALM      30.34F
GALVESTON      LGT RAIN  53  43  68 SE6       30.34F
COLLEGE STAT   CLEAR     46  35  65 S12       30.30F
CONROE         MOCLDY    41  33  73 CALM      30.33F
HUNTSVILLE     CLEAR     45  31  58 S6        30.31F
LUFKIN         MOCLDY    37  28  70 SE5       30.34F
SHREVEPORT     CLEAR     39  24  55 E5        30.32F
MONROE         CLEAR     37  31  78 CALM      30.38F
NATCHEZ MS     PTCLDY    32  25  74 CALM      30.37F
BATON ROUGE    PTCLDY    33  28  81 NE3       30.38S
N.O. INTL ARPT PTCLDY    41  31  67 W3        30.37F
SLIDELL        PTCLDY    31  29  92 CALM      30.37S
$$

MARINE REPORTS

STATION/POSITION TIME  SKY/WX   TEMP    WIND        PRES    VSBY
                                AIR SEA DIR/SP/G
                 (UTC)          (F)     (DEG/KT/KT) (MB)    (MI)
BUOY 30 S HIGH I 0650            55 58  110/ 12/ 16 1026.9F
WVE H/P(F/S)=  3/ 5

SEA RIM ST PARK  0700            52     130/  6/  7 1027.8F
PORT ARTHUR      0600               57  130/  5/  9 1027.8F
SABINE PASS N    0600            51 57  130/ 12/ 15 1028.8F
TEXAS POINT      NOT AVBL
CALCASIEU PASS   0600            51 57  180/  7/  8 1027.8F
LK CHARLES BEACH 0600            45 56              1029.3F
MARSH ISLAND     0600            51     140/  5/  6   N/A
WVE H/P(F/S)=  1

FRESH WATER LOCK 0600            46 57  330/  3/  3 1029.1F
AMERADA PASS     0600            47 50   CALM  /  1 1028.8F
$$



USA.gov is the U.S. government's official web portal to all federal, state and local government web resources and services.